Location: Banios
(43.0451°N, 0.2335°E)
Time: 13:16:15
(UTC+00:00)

ADEOS - Pass Details

Date: 25 January 2021
Orbit: 792 x 794 km, 98.9° (Epoch: 25 February)

Event Time Altitude Azimuth Distance (km) Brightness Sun altitude
Rises 05:34:51 0° 6° (N) 3,302 6.8 -19.3°
Reaches altitude 10° 05:37:19 10° 358° (N) 2,369 5.9 -18.9°
Maximum altitude 05:42:04 37° 293° (WNW) 1,223 4.0 -18.0°
Enters shadow 05:44:49 22° 241° (WSW) 1,695 4.8 -17.5°
